Time,TemperatureF,DewpointF,PressureIn,WindDirection,WindDirectionDegrees,WindSpeedMPH,WindSpeedGustMPH,Humidity,HourlyPrecipIn,Conditions,Clouds,dailyrainin,SoftwareType,DateUTC
2013-03-09 00:00:00,40.0,33.0,30.03,NNE,22,25.0,28.0,76,0.00,,,0.00,Rainwise IP-100,2013-03-09 05:00:00,
2013-03-09 00:05:00,40.0,33.0,30.03,ENE,67,8.0,31.0,76,0.00,,,0.00,Rainwise IP-100,2013-03-09 05:05:00,
2013-03-09 00:10:00,40.0,33.0,30.02,NNE,22,15.0,34.0,76,0.00,,,0.00,Rainwise IP-100,2013-03-09 05:10:00,
2013-03-09 00:15:00,40.0,33.0,30.02,NNE,22,13.0,29.0,76,0.00,,,0.00,Rainwise IP-100,2013-03-09 05:15:00,
2013-03-09 00:20:00,40.0,33.0,30.01,NNE,22,26.0,26.0,75,0.00,,,0.00,Rainwise IP-100,2013-03-09 05:20:00,
2013-03-09 00:25:00,40.0,33.0,30.01,North,360,11.0,32.0,76,0.00,,,0.00,Rainwise IP-100,2013-03-09 05:25:00,
2013-03-09 00:30:00,39.0,32.0,30.04,North,360,15.0,38.0,75,0.00,,,0.00,Rainwise IP-100,2013-03-09 05:30:00,
2013-03-09 00:35:00,39.0,32.0,30.04,NNE,22,22.0,32.0,75,0.00,,,0.00,Rainwise IP-100,2013-03-09 05:35:00,
2013-03-09 00:40:00,39.0,32.0,30.01,NE,45,22.0,28.0,75,0.00,,,0.00,Rainwise IP-100,2013-03-09 05:40:00,
2013-03-09 00:45:00,39.0,32.0,30.01,NNE,22,11.0,31.0,75,0.00,,,0.00,Rainwise IP-100,2013-03-09 05:45:00,
2013-03-09 00:46:00,39.0,32.0,30.01,NNE,22,9.0,25.0,75,0.00,,,0.00,Rainwise IP-100,2013-03-09 05:46:00,
2013-03-09 00:51:00,39.0,32.0,30.04,NNE,22,17.0,28.0,75,0.00,,,0.00,Rainwise IP-100,2013-03-09 05:51:00,
2013-03-09 00:56:00,39.0,32.0,30.03,NNE,22,15.0,30.0,77,0.00,,,0.00,Rainwise IP-100,2013-03-09 05:56:00,
2013-03-09 01:01:00,39.0,32.0,30.03,NNE,22,23.0,31.0,75,0.00,,,0.00,Rainwise IP-100,2013-03-09 06:01:00,
2013-03-09 01:06:00,39.0,32.0,30.03,NNE,22,17.0,33.0,75,0.00,,,0.00,Rainwise IP-100,2013-03-09 06:06:00,
2013-03-09 01:11:00,39.0,32.0,30.03,NNE,22,15.0,32.0,75,0.00,,,0.00,Rainwise IP-100,2013-03-09 06:11:00,
2013-03-09 01:16:00,39.0,32.0,30.04,NE,45,16.0,32.0,77,0.00,,,0.00,Rainwise IP-100,2013-03-09 06:16:00,
2013-03-09 01:21:00,39.0,32.0,30.04,NNE,22,31.0,31.0,75,0.00,,,0.00,Rainwise IP-100,2013-03-09 06:21:00,
2013-03-09 01:26:00,39.0,32.0,30.04,NNE,22,17.0,37.0,77,0.00,,,0.00,Rainwise IP-100,2013-03-09 06:26:00,
2013-03-09 01:31:00,39.0,32.0,30.04,NNE,22,23.0,35.0,75,0.00,,,0.00,Rainwise IP-100,2013-03-09 06:31:00,
2013-03-09 01:36:00,39.0,32.0,30.03,NNE,22,9.0,31.0,77,0.00,,,0.00,Rainwise IP-100,2013-03-09 06:36:00,
2013-03-09 01:41:00,39.0,32.0,30.03,ENE,67,9.0,34.0,75,0.00,,,0.00,Rainwise IP-100,2013-03-09 06:41:00,
2013-03-09 01:46:00,39.0,32.0,30.03,North,360,20.0,26.0,76,0.00,,,0.00,Rainwise IP-100,2013-03-09 06:46:00,
2013-03-09 01:51:00,39.0,32.0,30.03,North,360,11.0,26.0,75,0.00,,,0.00,Rainwise IP-100,2013-03-09 06:51:00,
2013-03-09 01:57:00,39.0,32.0,30.03,East,90,4.0,32.0,75,0.00,,,0.00,Rainwise IP-100,2013-03-09 06:57:00,
2013-03-09 02:02:00,39.0,32.0,30.03,NNE,22,15.0,26.0,75,0.00,,,0.00,Rainwise IP-100,2013-03-09 07:02:00,
2013-03-09 02:07:00,39.0,32.0,30.04,North,360,17.0,26.0,75,0.00,,,0.00,Rainwise IP-100,2013-03-09 07:07:00,
2013-03-09 02:12:00,38.0,31.0,30.04,NNE,22,8.0,29.0,75,0.00,,,0.00,Rainwise IP-100,2013-03-09 07:12:00,
2013-03-09 02:17:00,38.0,31.0,30.04,North,360,12.0,34.0,75,0.00,,,0.00,Rainwise IP-100,2013-03-09 07:17:00,
2013-03-09 02:22:00,38.0,31.0,30.04,NNE,22,14.0,29.0,75,0.00,,,0.00,Rainwise IP-100,2013-03-09 07:22:00,
2013-03-09 02:25:00,38.0,31.0,30.04,NE,45,27.0,37.0,75,0.00,,,0.00,Rainwise IP-100,2013-03-09 07:25:00,
2013-03-09 02:30:00,38.0,31.0,30.04,NNE,22,21.0,37.0,75,0.00,,,0.00,Rainwise IP-100,2013-03-09 07:30:00,
2013-03-09 02:36:00,38.0,32.0,30.04,NNE,22,11.0,21.0,77,0.00,,,0.00,Rainwise IP-100,2013-03-09 07:36:00,
2013-03-09 02:41:00,38.0,31.0,30.04,NNE,22,22.0,25.0,75,0.00,,,0.00,Rainwise IP-100,2013-03-09 07:41:00,
2013-03-09 02:46:00,38.0,32.0,30.06,NNE,22,22.0,29.0,77,0.00,,,0.00,Rainwise IP-100,2013-03-09 07:46:00,
2013-03-09 02:51:00,38.0,31.0,30.06,NE,45,15.0,32.0,75,0.00,,,0.00,Rainwise IP-100,2013-03-09 07:51:00,
2013-03-09 02:56:00,38.0,31.0,30.06,NNW,337,17.0,35.0,75,0.00,,,0.00,Rainwise IP-100,2013-03-09 07:56:00,
2013-03-09 03:01:00,38.0,31.0,30.04,ENE,67,23.0,32.0,75,0.00,,,0.00,Rainwise IP-100,2013-03-09 08:01:00,
2013-03-09 03:06:00,38.0,32.0,30.04,NE,45,13.0,35.0,77,0.00,,,0.00,Rainwise IP-100,2013-03-09 08:06:00,
2013-03-09 03:11:00,38.0,31.0,30.04,NNE,22,16.0,34.0,75,0.00,,,0.00,Rainwise IP-100,2013-03-09 08:11:00,
2013-03-09 03:16:00,38.0,31.0,30.06,NNE,22,7.0,32.0,76,0.00,,,0.00,Rainwise IP-100,2013-03-09 08:16:00,
2013-03-09 03:21:00,38.0,31.0,30.06,NNE,22,16.0,38.0,75,0.00,,,0.00,Rainwise IP-100,2013-03-09 08:21:00,
2013-03-09 03:27:00,38.0,31.0,30.06,NE,45,14.0,30.0,75,0.00,,,0.00,Rainwise IP-100,2013-03-09 08:27:00,
2013-03-09 03:32:00,38.0,31.0,30.04,NNE,22,11.0,31.0,75,0.00,,,0.00,Rainwise IP-100,2013-03-09 08:32:00,
2013-03-09 03:37:00,38.0,31.0,30.06,NNE,22,18.0,28.0,75,0.00,,,0.00,Rainwise IP-100,2013-03-09 08:37:00,
2013-03-09 03:42:00,38.0,31.0,30.06,NNE,22,16.0,37.0,75,0.00,,,0.00,Rainwise IP-100,2013-03-09 08:42:00,
2013-03-09 03:47:00,38.0,32.0,30.07,NE,45,25.0,26.0,77,0.00,,,0.00,Rainwise IP-100,2013-03-09 08:47:00,
2013-03-09 03:52:00,38.0,31.0,30.07,NNW,337,7.0,30.0,75,0.00,,,0.00,Rainwise IP-100,2013-03-09 08:52:00,
2013-03-09 03:57:00,38.0,31.0,30.06,North,360,13.0,25.0,75,0.00,,,0.00,Rainwise IP-100,2013-03-09 08:57:00,
2013-03-09 04:02:00,38.0,31.0,30.06,North,360,16.0,27.0,75,0.00,,,0.00,Rainwise IP-100,2013-03-09 09:02:00,
2013-03-09 04:07:00,38.0,31.0,30.07,NNE,22,12.0,33.0,75,0.00,,,0.00,Rainwise IP-100,2013-03-09 09:07:00,
2013-03-09 04:12:00,38.0,31.0,30.07,NNE,22,13.0,29.0,75,0.00,,,0.00,Rainwise IP-100,2013-03-09 09:12:00,
2013-03-09 04:17:00,38.0,31.0,30.08,NNE,22,14.0,30.0,75,0.00,,,0.00,Rainwise IP-100,2013-03-09 09:17:00,
2013-03-09 04:22:00,38.0,31.0,30.08,NE,45,22.0,27.0,75,0.00,,,0.00,Rainwise IP-100,2013-03-09 09:22:00,
2013-03-09 04:27:00,38.0,32.0,30.08,NE,45,26.0,27.0,77,0.00,,,0.00,Rainwise IP-100,2013-03-09 09:27:00,
2013-03-09 04:33:00,38.0,31.0,30.08,ENE,67,19.0,29.0,75,0.00,,,0.00,Rainwise IP-100,2013-03-09 09:33:00,
2013-03-09 04:38:00,37.0,31.0,30.08,ENE,67,10.0,28.0,76,0.00,,,0.00,Rainwise IP-100,2013-03-09 09:38:00,
2013-03-09 04:43:00,38.0,31.0,30.08,NNE,22,6.0,31.0,75,0.00,,,0.00,Rainwise IP-100,2013-03-09 09:43:00,
2013-03-09 04:48:00,38.0,31.0,30.08,North,360,15.0,31.0,75,0.00,,,0.00,Rainwise IP-100,2013-03-09 09:48:00,
2013-03-09 04:53:00,38.0,31.0,30.08,NNE,22,21.0,27.0,75,0.00,,,0.00,Rainwise IP-100,2013-03-09 09:53:00,
2013-03-09 04:58:00,38.0,31.0,30.10,NE,45,7.0,31.0,75,0.00,,,0.00,Rainwise IP-100,2013-03-09 09:58:00,
2013-03-09 05:03:00,37.0,31.0,30.10,NE,45,20.0,35.0,76,0.00,,,0.00,Rainwise IP-100,2013-03-09 10:03:00,
2013-03-09 05:08:00,38.0,31.0,30.10,NNE,22,16.0,34.0,75,0.00,,,0.00,Rainwise IP-100,2013-03-09 10:08:00,
2013-03-09 05:13:00,37.0,31.0,30.10,NNE,22,7.0,23.0,76,0.00,,,0.00,Rainwise IP-100,2013-03-09 10:13:00,
2013-03-09 05:18:00,37.0,31.0,30.11,NNE,22,19.0,28.0,76,0.00,,,0.00,Rainwise IP-100,2013-03-09 10:18:00,
2013-03-09 05:23:00,37.0,31.0,30.11,NNE,22,21.0,24.0,76,0.00,,,0.00,Rainwise IP-100,2013-03-09 10:23:00,
2013-03-09 05:28:00,37.0,31.0,30.10,NNE,22,18.0,34.0,76,0.00,,,0.00,Rainwise IP-100,2013-03-09 10:28:00,
2013-03-09 05:33:00,38.0,31.0,30.10,NNW,337,6.0,31.0,75,0.00,,,0.00,Rainwise IP-100,2013-03-09 10:33:00,
2013-03-09 05:39:00,37.0,31.0,30.10,North,360,6.0,32.0,76,0.00,,,0.00,Rainwise IP-100,2013-03-09 10:39:00,
2013-03-09 05:44:00,37.0,31.0,30.10,ENE,67,9.0,32.0,76,0.00,,,0.00,Rainwise IP-100,2013-03-09 10:44:00,
2013-03-09 05:49:00,37.0,31.0,30.12,NNE,22,17.0,30.0,76,0.00,,,0.00,Rainwise IP-100,2013-03-09 10:49:00,
2013-03-09 05:54:00,37.0,31.0,30.12,NE,45,16.0,38.0,76,0.00,,,0.00,Rainwise IP-100,2013-03-09 10:54:00,
2013-03-09 05:59:00,37.0,31.0,30.12,NNE,22,12.0,34.0,76,0.00,,,0.00,Rainwise IP-100,2013-03-09 10:59:00,
2013-03-09 06:04:00,37.0,31.0,30.12,NE,45,13.0,32.0,76,0.00,,,0.00,Rainwise IP-100,2013-03-09 11:04:00,
2013-03-09 06:09:00,38.0,31.0,30.13,NNE,22,16.0,31.0,75,0.00,,,0.00,Rainwise IP-100,2013-03-09 11:09:00,
2013-03-09 06:14:00,37.0,31.0,30.13,NNE,22,9.0,35.0,76,0.00,,,0.00,Rainwise IP-100,2013-03-09 11:14:00,
2013-03-09 06:19:00,37.0,31.0,30.12,NNE,22,21.0,29.0,76,0.00,,,0.00,Rainwise IP-100,2013-03-09 11:19:00,
2013-03-09 06:24:00,37.0,31.0,30.12,NNE,22,22.0,29.0,76,0.00,,,0.00,Rainwise IP-100,2013-03-09 11:24:00,
2013-03-09 06:29:00,37.0,31.0,30.12,East,90,9.0,30.0,76,0.00,,,0.00,Rainwise IP-100,2013-03-09 11:29:00,
2013-03-09 06:34:00,37.0,31.0,30.12,North,360,5.0,29.0,76,0.00,,,0.00,Rainwise IP-100,2013-03-09 11:34:00,
2013-03-09 06:39:00,37.0,31.0,30.13,NE,45,23.0,31.0,76,0.00,,,0.00,Rainwise IP-100,2013-03-09 11:39:00,
2013-03-09 06:44:00,38.0,31.0,30.13,NE,45,7.0,25.0,75,0.00,,,0.00,Rainwise IP-100,2013-03-09 11:44:00,
2013-03-09 06:50:00,37.0,31.0,30.12,NNE,22,9.0,32.0,76,0.00,,,0.00,Rainwise IP-100,2013-03-09 11:50:00,
2013-03-09 06:55:00,37.0,31.0,30.12,NNE,22,20.0,34.0,76,0.00,,,0.00,Rainwise IP-100,2013-03-09 11:55:00,
2013-03-09 07:00:00,38.0,31.0,30.12,NNE,22,12.0,37.0,75,0.00,,,0.00,Rainwise IP-100,2013-03-09 12:00:00,
2013-03-09 07:05:00,37.0,31.0,30.12,ENE,67,11.0,28.0,76,0.00,,,0.00,Rainwise IP-100,2013-03-09 12:05:00,
2013-03-09 07:10:00,37.0,31.0,30.13,East,90,7.0,29.0,76,0.00,,,0.00,Rainwise IP-100,2013-03-09 12:10:00,
2013-03-09 07:15:00,37.0,31.0,30.13,ENE,67,16.0,29.0,76,0.00,,,0.00,Rainwise IP-100,2013-03-09 12:15:00,
2013-03-09 07:20:00,37.0,31.0,30.14,North,360,6.0,32.0,76,0.00,,,0.00,Rainwise IP-100,2013-03-09 12:20:00,
2013-03-09 07:25:00,38.0,31.0,30.14,North,360,12.0,32.0,75,0.00,,,0.00,Rainwise IP-100,2013-03-09 12:25:00,
2013-03-09 07:30:00,37.0,31.0,30.15,NNE,22,29.0,29.0,76,0.00,,,0.00,Rainwise IP-100,2013-03-09 12:30:00,
2013-03-09 07:35:00,37.0,31.0,30.15,NNE,22,25.0,32.0,76,0.00,,,0.00,Rainwise IP-100,2013-03-09 12:35:00,
2013-03-09 07:40:00,37.0,31.0,30.15,NNE,22,9.0,28.0,76,0.00,,,0.00,Rainwise IP-100,2013-03-09 12:40:00,
2013-03-09 07:45:00,37.0,31.0,30.15,NE,45,10.0,31.0,76,0.00,,,0.00,Rainwise IP-100,2013-03-09 12:45:00,
2013-03-09 07:50:00,37.0,31.0,30.16,NE,45,8.0,28.0,76,0.00,,,0.00,Rainwise IP-100,2013-03-09 12:50:00,
2013-03-09 07:55:00,38.0,31.0,30.16,ENE,67,7.0,26.0,75,0.00,,,0.00,Rainwise IP-100,2013-03-09 12:55:00,
2013-03-09 08:00:00,37.0,31.0,30.15,NW,315,6.0,27.0,76,0.00,,,0.00,Rainwise IP-100,2013-03-09 13:00:00,
2013-03-09 08:06:00,37.0,31.0,30.15,ENE,67,18.0,27.0,76,0.00,,,0.00,Rainwise IP-100,2013-03-09 13:06:00,
2013-03-09 08:11:00,37.0,31.0,30.17,NNE,22,15.0,25.0,76,0.00,,,0.00,Rainwise IP-100,2013-03-09 13:11:00,
2013-03-09 08:16:00,37.0,31.0,30.18,NE,45,20.0,37.0,78,0.00,,,0.00,Rainwise IP-100,2013-03-09 13:16:00,
2013-03-09 08:21:00,38.0,31.0,30.18,ENE,67,18.0,26.0,75,0.00,,,0.00,Rainwise IP-100,2013-03-09 13:21:00,
2013-03-09 08:26:00,38.0,32.0,30.18,North,360,12.0,28.0,77,0.00,,,0.00,Rainwise IP-100,2013-03-09 13:26:00,
2013-03-09 08:31:00,38.0,31.0,30.18,NE,45,14.0,27.0,75,0.00,,,0.00,Rainwise IP-100,2013-03-09 13:31:00,
2013-03-09 08:36:00,37.0,31.0,30.18,NE,45,7.0,27.0,76,0.00,,,0.00,Rainwise IP-100,2013-03-09 13:36:00,
2013-03-09 08:41:00,38.0,31.0,30.18,ENE,67,16.0,32.0,75,0.00,,,0.00,Rainwise IP-100,2013-03-09 13:41:00,
2013-03-09 08:46:00,38.0,32.0,30.18,NNE,22,7.0,31.0,77,0.00,,,0.00,Rainwise IP-100,2013-03-09 13:46:00,
2013-03-09 08:51:00,38.0,31.0,30.18,NNE,22,14.0,29.0,75,0.00,,,0.00,Rainwise IP-100,2013-03-09 13:51:00,
2013-03-09 08:56:00,38.0,32.0,30.18,NE,45,17.0,28.0,77,0.00,,,0.00,Rainwise IP-100,2013-03-09 13:56:00,
2013-03-09 09:01:00,38.0,31.0,30.18,NNE,22,14.0,29.0,75,0.00,,,0.00,Rainwise IP-100,2013-03-09 14:01:00,
2013-03-09 09:06:00,38.0,32.0,30.19,NE,45,15.0,26.0,77,0.00,,,0.00,Rainwise IP-100,2013-03-09 14:06:00,
2013-03-09 09:11:00,38.0,31.0,30.19,NNE,22,32.0,32.0,75,0.00,,,0.00,Rainwise IP-100,2013-03-09 14:11:00,
2013-03-09 09:16:00,38.0,32.0,30.18,NE,45,16.0,32.0,77,0.00,,,0.00,Rainwise IP-100,2013-03-09 14:16:00,
2013-03-09 09:22:00,38.0,31.0,30.18,NNE,22,16.0,28.0,75,0.00,,,0.00,Rainwise IP-100,2013-03-09 14:22:00,
2013-03-09 09:27:00,38.0,31.0,30.18,NNE,22,20.0,25.0,75,0.00,,,0.00,Rainwise IP-100,2013-03-09 14:27:00,
2013-03-09 09:32:00,38.0,31.0,30.18,NNE,22,17.0,30.0,75,0.00,,,0.00,Rainwise IP-100,2013-03-09 14:32:00,
2013-03-09 09:37:00,38.0,31.0,30.18,NNE,22,17.0,31.0,75,0.00,,,0.00,Rainwise IP-100,2013-03-09 14:37:00,
2013-03-09 09:42:00,38.0,31.0,30.18,NNE,22,11.0,26.0,75,0.00,,,0.00,Rainwise IP-100,2013-03-09 14:42:00,
2013-03-09 09:47:00,38.0,32.0,30.18,NNE,22,6.0,28.0,77,0.00,,,0.00,Rainwise IP-100,2013-03-09 14:47:00,
2013-03-09 09:52:00,38.0,31.0,30.18,ENE,67,16.0,23.0,75,0.00,,,0.00,Rainwise IP-100,2013-03-09 14:52:00,
2013-03-09 09:57:00,38.0,31.0,30.19,ENE,67,12.0,28.0,75,0.00,,,0.00,Rainwise IP-100,2013-03-09 14:57:00,
2013-03-09 10:02:00,38.0,31.0,30.19,NNE,22,17.0,29.0,75,0.00,,,0.00,Rainwise IP-100,2013-03-09 15:02:00,
2013-03-09 10:07:00,38.0,31.0,30.19,NE,45,22.0,32.0,75,0.00,,,0.00,Rainwise IP-100,2013-03-09 15:07:00,
2013-03-09 10:12:00,38.0,31.0,30.19,NNE,22,10.0,29.0,75,0.00,,,0.00,Rainwise IP-100,2013-03-09 15:12:00,
2013-03-09 10:17:00,38.0,31.0,30.20,NNE,22,9.0,31.0,75,0.00,,,0.00,Rainwise IP-100,2013-03-09 15:17:00,
2013-03-09 10:22:00,38.0,31.0,30.20,NNE,22,15.0,23.0,75,0.00,,,0.00,Rainwise IP-100,2013-03-09 15:22:00,
2013-03-09 10:28:00,38.0,31.0,30.18,North,360,17.0,32.0,75,0.00,,,0.00,Rainwise IP-100,2013-03-09 15:28:00,
2013-03-09 10:33:00,38.0,31.0,30.18,North,360,13.0,30.0,75,0.00,,,0.00,Rainwise IP-100,2013-03-09 15:33:00,
2013-03-09 10:38:00,38.0,31.0,30.19,NNE,22,20.0,20.0,75,0.00,,,0.00,Rainwise IP-100,2013-03-09 15:38:00,
2013-03-09 10:43:00,38.0,31.0,30.19,NNE,22,20.0,29.0,75,0.00,,,0.00,Rainwise IP-100,2013-03-09 15:43:00,
2013-03-09 10:48:00,38.0,31.0,30.20,NE,45,11.0,30.0,75,0.00,,,0.00,Rainwise IP-100,2013-03-09 15:48:00,
2013-03-09 10:53:00,38.0,31.0,30.20,NNE,22,12.0,24.0,75,0.00,,,0.00,Rainwise IP-100,2013-03-09 15:53:00,
2013-03-09 10:58:00,38.0,31.0,30.20,NNE,22,15.0,25.0,75,0.00,,,0.00,Rainwise IP-100,2013-03-09 15:58:00,
2013-03-09 11:03:00,38.0,31.0,30.20,NNE,22,20.0,27.0,75,0.00,,,0.00,Rainwise IP-100,2013-03-09 16:03:00,
2013-03-09 11:08:00,38.0,31.0,30.20,NNE,22,12.0,27.0,75,0.00,,,0.00,Rainwise IP-100,2013-03-09 16:08:00,
2013-03-09 11:13:00,38.0,31.0,30.20,ENE,67,11.0,23.0,75,0.00,,,0.00,Rainwise IP-100,2013-03-09 16:13:00,
2013-03-09 11:18:00,38.0,31.0,30.21,East,90,13.0,28.0,75,0.00,,,0.00,Rainwise IP-100,2013-03-09 16:18:00,
2013-03-09 11:23:00,38.0,31.0,30.21,ENE,67,17.0,31.0,75,0.00,,,0.00,Rainwise IP-100,2013-03-09 16:23:00,
2013-03-09 11:29:00,38.0,31.0,30.22,NE,45,8.0,32.0,75,0.00,,,0.00,Rainwise IP-100,2013-03-09 16:29:00,
2013-03-09 11:34:00,38.0,31.0,30.22,ENE,67,15.0,29.0,75,0.00,,,0.00,Rainwise IP-100,2013-03-09 16:34:00,
2013-03-09 11:39:00,38.0,31.0,30.21,NNE,22,13.0,25.0,75,0.00,,,0.00,Rainwise IP-100,2013-03-09 16:39:00,
2013-03-09 11:44:00,38.0,31.0,30.21,NE,45,13.0,19.0,75,0.00,,,0.00,Rainwise IP-100,2013-03-09 16:44:00,
2013-03-09 11:49:00,38.0,31.0,30.21,ENE,67,18.0,28.0,75,0.00,,,0.00,Rainwise IP-100,2013-03-09 16:49:00,
2013-03-09 11:54:00,38.0,31.0,30.21,East,90,12.0,27.0,75,0.00,,,0.00,Rainwise IP-100,2013-03-09 16:54:00,
2013-03-09 11:59:00,38.0,31.0,30.22,NNE,22,19.0,32.0,75,0.00,,,0.00,Rainwise IP-100,2013-03-09 16:59:00,
2013-03-09 12:04:00,38.0,31.0,30.22,NE,45,10.0,30.0,75,0.00,,,0.00,Rainwise IP-100,2013-03-09 17:04:00,
2013-03-09 12:09:00,38.0,31.0,30.22,NE,45,15.0,27.0,75,0.00,,,0.00,Rainwise IP-100,2013-03-09 17:09:00,
2013-03-09 12:14:00,38.0,31.0,30.22,ENE,67,13.0,30.0,75,0.00,,,0.00,Rainwise IP-100,2013-03-09 17:14:00,
2013-03-09 12:19:00,38.0,31.0,30.22,NE,45,15.0,29.0,75,0.00,,,0.00,Rainwise IP-100,2013-03-09 17:19:00,
2013-03-09 12:24:00,38.0,31.0,30.22,NE,45,13.0,26.0,75,0.00,,,0.00,Rainwise IP-100,2013-03-09 17:24:00,
2013-03-09 12:29:00,38.0,31.0,30.20,ENE,67,23.0,30.0,75,0.00,,,0.00,Rainwise IP-100,2013-03-09 17:29:00,
2013-03-09 12:34:00,38.0,31.0,30.20,NE,45,7.0,29.0,75,0.00,,,0.00,Rainwise IP-100,2013-03-09 17:34:00,
2013-03-09 12:39:00,38.0,31.0,30.21,NNE,22,17.0,24.0,75,0.00,,,0.00,Rainwise IP-100,2013-03-09 17:39:00,
2013-03-09 12:45:00,38.0,31.0,30.21,NNE,22,11.0,26.0,75,0.00,,,0.00,Rainwise IP-100,2013-03-09 17:45:00,
2013-03-09 12:50:00,38.0,31.0,30.21,NE,45,11.0,28.0,75,0.00,,,0.00,Rainwise IP-100,2013-03-09 17:50:00,
2013-03-09 12:55:00,38.0,31.0,30.21,NE,45,9.0,22.0,75,0.00,,,0.00,Rainwise IP-100,2013-03-09 17:55:00,
2013-03-09 13:00:00,38.0,31.0,30.22,NE,45,11.0,32.0,75,0.00,,,0.00,Rainwise IP-100,2013-03-09 18:00:00,
2013-03-09 13:05:00,38.0,31.0,30.22,NE,45,15.0,24.0,75,0.00,,,0.00,Rainwise IP-100,2013-03-09 18:05:00,
2013-03-09 13:10:00,38.0,31.0,30.22,NNE,22,12.0,26.0,75,0.00,,,0.00,Rainwise IP-100,2013-03-09 18:10:00,
2013-03-09 13:15:00,38.0,31.0,30.22,NNE,22,25.0,25.0,75,0.00,,,0.00,Rainwise IP-100,2013-03-09 18:15:00,
2013-03-09 13:20:00,38.0,31.0,30.22,NNE,22,25.0,25.0,75,0.00,,,0.00,Rainwise IP-100,2013-03-09 18:20:00,
2013-03-09 13:25:00,38.0,31.0,30.22,NNE,22,18.0,25.0,75,0.00,,,0.00,Rainwise IP-100,2013-03-09 18:25:00,
2013-03-09 13:30:00,38.0,31.0,30.22,NNE,22,9.0,25.0,75,0.00,,,0.00,Rainwise IP-100,2013-03-09 18:30:00,
2013-03-09 13:36:00,38.0,31.0,30.22,NE,45,10.0,24.0,75,0.00,,,0.00,Rainwise IP-100,2013-03-09 18:36:00,
2013-03-09 13:41:00,38.0,31.0,30.22,NE,45,9.0,25.0,75,0.00,,,0.00,Rainwise IP-100,2013-03-09 18:41:00,
2013-03-09 13:46:00,38.0,31.0,30.23,NE,45,15.0,23.0,76,0.00,,,0.00,Rainwise IP-100,2013-03-09 18:46:00,
2013-03-09 13:51:00,38.0,31.0,30.23,North,360,21.0,21.0,75,0.00,,,0.00,Rainwise IP-100,2013-03-09 18:51:00,
2013-03-09 13:56:00,38.0,31.0,30.23,NNE,22,20.0,30.0,75,0.00,,,0.00,Rainwise IP-100,2013-03-09 18:56:00,
2013-03-09 14:01:00,38.0,31.0,30.23,NNE,22,16.0,27.0,75,0.00,,,0.00,Rainwise IP-100,2013-03-09 19:01:00,
2013-03-09 14:06:00,38.0,31.0,30.23,NE,45,9.0,28.0,76,0.00,,,0.00,Rainwise IP-100,2013-03-09 19:06:00,
2013-03-09 14:11:00,38.0,31.0,30.23,NNE,22,13.0,28.0,75,0.00,,,0.00,Rainwise IP-100,2013-03-09 19:11:00,
2013-03-09 14:16:00,38.0,31.0,30.23,North,360,2.0,28.0,75,0.00,,,0.00,Rainwise IP-100,2013-03-09 19:16:00,
2013-03-09 14:21:00,38.0,31.0,30.24,ENE,67,19.0,29.0,75,0.00,,,0.00,Rainwise IP-100,2013-03-09 19:21:00,
2013-03-09 14:26:00,38.0,32.0,30.24,ENE,67,12.0,29.0,77,0.00,,,0.00,Rainwise IP-100,2013-03-09 19:26:00,
2013-03-09 14:31:00,38.0,31.0,30.24,NE,45,12.0,25.0,75,0.00,,,0.00,Rainwise IP-100,2013-03-09 19:31:00,
2013-03-09 14:37:00,38.0,32.0,30.23,North,360,19.0,28.0,77,0.00,,,0.00,Rainwise IP-100,2013-03-09 19:37:00,
2013-03-09 14:42:00,38.0,31.0,30.23,NNE,22,23.0,23.0,75,0.00,,,0.00,Rainwise IP-100,2013-03-09 19:42:00,
2013-03-09 14:47:00,38.0,31.0,30.24,East,90,14.0,32.0,75,0.00,,,0.00,Rainwise IP-100,2013-03-09 19:47:00,
2013-03-09 14:52:00,38.0,31.0,30.24,NNE,22,10.0,22.0,75,0.00,,,0.00,Rainwise IP-100,2013-03-09 19:52:00,
2013-03-09 14:57:00,37.0,31.0,30.24,ENE,67,13.0,26.0,76,0.00,,,0.00,Rainwise IP-100,2013-03-09 19:57:00,
2013-03-09 15:02:00,38.0,31.0,30.24,NNE,22,16.0,28.0,75,0.00,,,0.00,Rainwise IP-100,2013-03-09 20:02:00,
2013-03-09 15:07:00,38.0,31.0,30.25,NNE,22,6.0,23.0,75,0.00,,,0.00,Rainwise IP-100,2013-03-09 20:07:00,
2013-03-09 15:12:00,37.0,31.0,30.25,ENE,67,10.0,28.0,76,0.00,,,0.00,Rainwise IP-100,2013-03-09 20:12:00,
2013-03-09 15:17:00,38.0,31.0,30.24,NE,45,15.0,26.0,75,0.00,,,0.00,Rainwise IP-100,2013-03-09 20:17:00,
2013-03-09 15:22:00,38.0,31.0,30.24,NE,45,9.0,26.0,75,0.00,,,0.00,Rainwise IP-100,2013-03-09 20:22:00,
2013-03-09 15:27:00,38.0,31.0,30.24,NE,45,10.0,21.0,75,0.00,,,0.00,Rainwise IP-100,2013-03-09 20:27:00,
2013-03-09 15:32:00,37.0,31.0,30.24,NNE,22,10.0,30.0,76,0.00,,,0.00,Rainwise IP-100,2013-03-09 20:32:00,
2013-03-09 15:37:00,37.0,31.0,30.25,NE,45,13.0,30.0,76,0.00,,,0.00,Rainwise IP-100,2013-03-09 20:37:00,
2013-03-09 15:43:00,38.0,31.0,30.25,NNE,22,6.0,22.0,75,0.00,,,0.00,Rainwise IP-100,2013-03-09 20:43:00,
2013-03-09 15:48:00,37.0,31.0,30.26,NE,45,9.0,25.0,76,0.00,,,0.00,Rainwise IP-100,2013-03-09 20:48:00,
2013-03-09 15:53:00,37.0,31.0,30.26,North,360,11.0,26.0,76,0.00,,,0.00,Rainwise IP-100,2013-03-09 20:53:00,
2013-03-09 15:58:00,37.0,31.0,30.24,NNE,22,17.0,23.0,76,0.00,,,0.00,Rainwise IP-100,2013-03-09 20:58:00,
2013-03-09 16:03:00,37.0,31.0,30.24,NE,45,10.0,23.0,76,0.00,,,0.00,Rainwise IP-100,2013-03-09 21:03:00,
2013-03-09 16:08:00,37.0,31.0,30.26,ENE,67,15.0,28.0,76,0.00,,,0.00,Rainwise IP-100,2013-03-09 21:08:00,
2013-03-09 16:13:00,37.0,31.0,30.26,SE,135,4.0,28.0,76,0.00,,,0.00,Rainwise IP-100,2013-03-09 21:13:00,
2013-03-09 16:18:00,38.0,31.0,30.25,NE,45,11.0,26.0,76,0.00,,,0.00,Rainwise IP-100,2013-03-09 21:18:00,
2013-03-09 16:23:00,37.0,31.0,30.25,NNE,22,17.0,26.0,76,0.00,,,0.00,Rainwise IP-100,2013-03-09 21:23:00,
2013-03-09 16:28:00,37.0,31.0,30.26,NNE,22,16.0,23.0,76,0.00,,,0.00,Rainwise IP-100,2013-03-09 21:28:00,
2013-03-09 16:33:00,37.0,31.0,30.26,North,360,9.0,23.0,76,0.00,,,0.00,Rainwise IP-100,2013-03-09 21:33:00,
2013-03-09 16:38:00,37.0,31.0,30.27,NE,45,11.0,22.0,76,0.00,,,0.00,Rainwise IP-100,2013-03-09 21:38:00,
2013-03-09 16:43:00,37.0,31.0,30.27,NNE,22,6.0,23.0,76,0.00,,,0.00,Rainwise IP-100,2013-03-09 21:43:00,
2013-03-09 16:49:00,37.0,31.0,30.25,NNE,22,19.0,19.0,76,0.00,,,0.00,Rainwise IP-100,2013-03-09 21:49:00,
2013-03-09 16:54:00,37.0,31.0,30.25,NNE,22,12.0,22.0,76,0.00,,,0.00,Rainwise IP-100,2013-03-09 21:54:00,
2013-03-09 16:59:00,37.0,31.0,30.27,NNE,22,14.0,23.0,76,0.00,,,0.00,Rainwise IP-100,2013-03-09 21:59:00,
2013-03-09 17:04:00,37.0,31.0,30.27,NNE,22,10.0,23.0,76,0.00,,,0.00,Rainwise IP-100,2013-03-09 22:04:00,
2013-03-09 17:09:00,37.0,31.0,30.28,NE,45,17.0,20.0,76,0.00,,,0.00,Rainwise IP-100,2013-03-09 22:09:00,
2013-03-09 17:14:00,37.0,31.0,30.28,NNE,22,19.0,29.0,76,0.00,,,0.00,Rainwise IP-100,2013-03-09 22:14:00,
2013-03-09 17:19:00,37.0,31.0,30.27,NNE,22,19.0,28.0,76,0.00,,,0.00,Rainwise IP-100,2013-03-09 22:19:00,
2013-03-09 17:24:00,37.0,31.0,30.27,NNE,22,13.0,28.0,76,0.00,,,0.00,Rainwise IP-100,2013-03-09 22:24:00,
2013-03-09 17:29:00,37.0,31.0,30.28,East,90,22.0,24.0,76,0.00,,,0.00,Rainwise IP-100,2013-03-09 22:29:00,
2013-03-09 17:34:00,37.0,31.0,30.28,NNE,22,15.0,23.0,76,0.00,,,0.00,Rainwise IP-100,2013-03-09 22:34:00,
2013-03-09 17:39:00,37.0,31.0,30.28,NE,45,13.0,19.0,76,0.00,,,0.00,Rainwise IP-100,2013-03-09 22:39:00,
2013-03-09 17:44:00,37.0,31.0,30.28,ESE,112,12.0,23.0,76,0.00,,,0.00,Rainwise IP-100,2013-03-09 22:44:00,
2013-03-09 17:49:00,37.0,31.0,30.29,NNE,22,9.0,23.0,76,0.00,,,0.00,Rainwise IP-100,2013-03-09 22:49:00,
2013-03-09 17:55:00,37.0,31.0,30.29,NE,45,15.0,18.0,76,0.00,,,0.00,Rainwise IP-100,2013-03-09 22:55:00,
2013-03-09 18:00:00,37.0,31.0,30.28,NE,45,15.0,20.0,75,0.00,,,0.00,Rainwise IP-100,2013-03-09 23:00:00,
2013-03-09 18:05:00,37.0,31.0,30.28,NE,45,9.0,29.0,76,0.00,,,0.00,Rainwise IP-100,2013-03-09 23:05:00,
2013-03-09 18:10:00,37.0,31.0,30.30,NE,45,6.0,25.0,76,0.00,,,0.00,Rainwise IP-100,2013-03-09 23:10:00,
2013-03-09 18:15:00,37.0,31.0,30.30,NE,45,17.0,24.0,76,0.00,,,0.00,Rainwise IP-100,2013-03-09 23:15:00,
2013-03-09 18:20:00,37.0,31.0,30.29,East,90,7.0,25.0,76,0.00,,,0.00,Rainwise IP-100,2013-03-09 23:20:00,
2013-03-09 18:25:00,37.0,31.0,30.29,NNE,22,10.0,21.0,76,0.00,,,0.00,Rainwise IP-100,2013-03-09 23:25:00,
2013-03-09 18:30:00,37.0,31.0,30.30,East,90,6.0,28.0,76,0.00,,,0.00,Rainwise IP-100,2013-03-09 23:30:00,
2013-03-09 18:35:00,37.0,31.0,30.30,NNE,22,19.0,22.0,76,0.00,,,0.00,Rainwise IP-100,2013-03-09 23:35:00,
2013-03-09 18:41:00,37.0,31.0,30.30,NE,45,13.0,19.0,77,0.00,,,0.00,Rainwise IP-100,2013-03-09 23:41:00,
2013-03-09 18:46:00,37.0,31.0,30.30,NE,45,12.0,19.0,77,0.00,,,0.00,Rainwise IP-100,2013-03-09 23:46:00,
2013-03-09 18:51:00,37.0,31.0,30.30,East,90,4.0,20.0,75,0.00,,,0.00,Rainwise IP-100,2013-03-09 23:51:00,
2013-03-09 18:56:00,37.0,31.0,30.32,ENE,67,10.0,22.0,77,0.00,,,0.00,Rainwise IP-100,2013-03-09 23:56:00,
2013-03-09 19:01:00,37.0,31.0,30.32,NE,45,4.0,19.0,75,0.00,,,0.00,Rainwise IP-100,2013-03-10 00:01:00,
2013-03-09 19:06:00,37.0,31.0,30.32,NNE,22,12.0,21.0,75,0.00,,,0.00,Rainwise IP-100,2013-03-10 00:06:00,
2013-03-09 19:11:00,37.0,31.0,30.32,ENE,67,13.0,25.0,75,0.00,,,0.00,Rainwise IP-100,2013-03-10 00:11:00,
2013-03-09 19:16:00,38.0,31.0,30.31,ENE,67,8.0,17.0,76,0.00,,,0.00,Rainwise IP-100,2013-03-10 00:16:00,
2013-03-09 19:21:00,37.0,31.0,30.31,NNE,22,13.0,22.0,75,0.00,,,0.00,Rainwise IP-100,2013-03-10 00:21:00,
2013-03-09 19:26:00,37.0,29.0,30.31,ESE,112,1.0,20.0,74,0.00,,,0.00,Rainwise IP-100,2013-03-10 00:26:00,
2013-03-09 19:31:00,37.0,29.0,30.31,ENE,67,6.0,17.0,74,0.00,,,0.00,Rainwise IP-100,2013-03-10 00:31:00,
2013-03-09 19:37:00,37.0,31.0,30.32,NNE,22,16.0,19.0,77,0.00,,,0.00,Rainwise IP-100,2013-03-10 00:37:00,
2013-03-09 19:42:00,37.0,31.0,30.32,ENE,67,13.0,24.0,75,0.00,,,0.00,Rainwise IP-100,2013-03-10 00:42:00,
2013-03-09 19:47:00,37.0,31.0,30.32,NE,45,7.0,20.0,77,0.00,,,0.00,Rainwise IP-100,2013-03-10 00:47:00,
2013-03-09 19:52:00,37.0,31.0,30.32,ENE,67,13.0,20.0,75,0.00,,,0.00,Rainwise IP-100,2013-03-10 00:52:00,
2013-03-09 19:57:00,37.0,31.0,30.32,ENE,67,19.0,22.0,77,0.00,,,0.00,Rainwise IP-100,2013-03-10 00:57:00,
2013-03-09 20:02:00,37.0,31.0,30.32,North,360,10.0,21.0,75,0.00,,,0.00,Rainwise IP-100,2013-03-10 01:02:00,
2013-03-09 20:07:00,37.0,31.0,30.32,NE,45,12.0,20.0,77,0.00,,,0.00,Rainwise IP-100,2013-03-10 01:07:00,
2013-03-09 20:12:00,37.0,31.0,30.32,NE,45,15.0,21.0,75,0.00,,,0.00,Rainwise IP-100,2013-03-10 01:12:00,
2013-03-09 20:17:00,37.0,31.0,30.32,NE,45,10.0,22.0,75,0.00,,,0.00,Rainwise IP-100,2013-03-10 01:17:00,
2013-03-09 20:22:00,37.0,31.0,30.32,North,360,6.0,20.0,76,0.00,,,0.00,Rainwise IP-100,2013-03-10 01:22:00,
2013-03-09 20:27:00,37.0,31.0,30.33,ENE,67,17.0,18.0,75,0.00,,,0.00,Rainwise IP-100,2013-03-10 01:27:00,
2013-03-09 20:32:00,38.0,31.0,30.33,NE,45,14.0,22.0,74,0.00,,,0.00,Rainwise IP-100,2013-03-10 01:32:00,
2013-03-09 20:37:00,38.0,31.0,30.32,ENE,67,7.0,21.0,75,0.00,,,0.00,Rainwise IP-100,2013-03-10 01:37:00,
2013-03-09 20:42:00,37.0,31.0,30.32,East,90,14.0,21.0,75,0.00,,,0.00,Rainwise IP-100,2013-03-10 01:42:00,
2013-03-09 20:47:00,38.0,31.0,30.31,NNE,22,22.0,22.0,75,0.00,,,0.00,Rainwise IP-100,2013-03-10 01:47:00,
2013-03-09 20:52:00,37.0,31.0,30.31,East,90,8.0,23.0,76,0.00,,,0.00,Rainwise IP-100,2013-03-10 01:52:00,
2013-03-09 20:58:00,37.0,31.0,30.33,NE,45,13.0,19.0,76,0.00,,,0.00,Rainwise IP-100,2013-03-10 01:58:00,
2013-03-09 21:03:00,37.0,31.0,30.33,NE,45,18.0,22.0,76,0.00,,,0.00,Rainwise IP-100,2013-03-10 02:03:00,
2013-03-09 21:08:00,37.0,31.0,30.33,East,90,7.0,21.0,75,0.00,,,0.00,Rainwise IP-100,2013-03-10 02:08:00,
2013-03-09 21:13:00,38.0,31.0,30.33,ENE,67,15.0,17.0,74,0.00,,,0.00,Rainwise IP-100,2013-03-10 02:13:00,
2013-03-09 21:18:00,38.0,31.0,30.32,NNE,22,2.0,18.0,74,0.00,,,0.00,Rainwise IP-100,2013-03-10 02:18:00,
2013-03-09 21:23:00,38.0,31.0,30.32,North,360,1.0,18.0,74,0.00,,,0.00,Rainwise IP-100,2013-03-10 02:23:00,
2013-03-09 21:28:00,38.0,31.0,30.32,NE,45,8.0,14.0,76,0.00,,,0.00,Rainwise IP-100,2013-03-10 02:28:00,
2013-03-09 21:33:00,38.0,31.0,30.32,East,90,10.0,24.0,74,0.00,,,0.00,Rainwise IP-100,2013-03-10 02:33:00,
2013-03-09 21:38:00,38.0,31.0,30.32,NE,45,8.0,21.0,74,0.00,,,0.00,Rainwise IP-100,2013-03-10 02:38:00,
2013-03-09 21:43:00,38.0,31.0,30.32,ENE,67,7.0,19.0,74,0.00,,,0.00,Rainwise IP-100,2013-03-10 02:43:00,
2013-03-09 21:48:00,38.0,31.0,30.32,East,90,7.0,25.0,75,0.00,,,0.00,Rainwise IP-100,2013-03-10 02:48:00,
2013-03-09 21:53:00,38.0,31.0,30.32,ENE,67,10.0,19.0,74,0.00,,,0.00,Rainwise IP-100,2013-03-10 02:53:00,
2013-03-09 21:58:00,38.0,31.0,30.31,ENE,67,13.0,21.0,74,0.00,,,0.00,Rainwise IP-100,2013-03-10 02:58:00,
2013-03-09 22:03:00,38.0,31.0,30.31,NE,45,6.0,20.0,74,0.00,,,0.00,Rainwise IP-100,2013-03-10 03:03:00,
2013-03-09 22:08:00,38.0,31.0,30.31,NE,45,10.0,20.0,74,0.00,,,0.00,Rainwise IP-100,2013-03-10 03:08:00,
2013-03-09 22:14:00,38.0,31.0,30.31,ENE,67,8.0,22.0,74,0.00,,,0.00,Rainwise IP-100,2013-03-10 03:14:00,
2013-03-09 22:19:00,38.0,31.0,30.32,NE,45,13.0,17.0,74,0.00,,,0.00,Rainwise IP-100,2013-03-10 03:19:00,
2013-03-09 22:24:00,38.0,31.0,30.32,NE,45,15.0,16.0,75,0.00,,,0.00,Rainwise IP-100,2013-03-10 03:24:00,
2013-03-09 22:29:00,38.0,31.0,30.33,NNE,22,13.0,16.0,75,0.00,,,0.00,Rainwise IP-100,2013-03-10 03:29:00,
2013-03-09 22:34:00,38.0,31.0,30.33,East,90,9.0,18.0,75,0.00,,,0.00,Rainwise IP-100,2013-03-10 03:34:00,
2013-03-09 22:39:00,38.0,31.0,30.33,East,90,13.0,16.0,75,0.00,,,0.00,Rainwise IP-100,2013-03-10 03:39:00,
2013-03-09 22:44:00,38.0,31.0,30.33,East,90,8.0,21.0,75,0.00,,,0.00,Rainwise IP-100,2013-03-10 03:44:00,
2013-03-09 22:49:00,38.0,31.0,30.33,ENE,67,6.0,15.0,75,0.00,,,0.00,Rainwise IP-100,2013-03-10 03:49:00,
2013-03-09 22:54:00,38.0,31.0,30.33,ENE,67,15.0,16.0,75,0.00,,,0.00,Rainwise IP-100,2013-03-10 03:54:00,
2013-03-09 22:59:00,38.0,31.0,30.34,ENE,67,12.0,17.0,75,0.00,,,0.00,Rainwise IP-100,2013-03-10 03:59:00,
2013-03-09 23:04:00,38.0,31.0,30.34,NNE,22,14.0,17.0,75,0.00,,,0.00,Rainwise IP-100,2013-03-10 04:04:00,
2013-03-09 23:09:00,38.0,31.0,30.33,ENE,67,10.0,15.0,75,0.00,,,0.00,Rainwise IP-100,2013-03-10 04:09:00,
2013-03-09 23:14:00,38.0,31.0,30.33,NNE,22,7.0,16.0,75,0.00,,,0.00,Rainwise IP-100,2013-03-10 04:14:00,
2013-03-09 23:19:00,39.0,32.0,30.33,ENE,67,9.0,16.0,75,0.00,,,0.00,Rainwise IP-100,2013-03-10 04:19:00,
2013-03-09 23:25:00,38.0,31.0,30.33,East,90,6.0,19.0,75,0.00,,,0.00,Rainwise IP-100,2013-03-10 04:25:00,
2013-03-09 23:30:00,38.0,31.0,30.34,NE,45,6.0,17.0,75,0.00,,,0.00,Rainwise IP-100,2013-03-10 04:30:00,
2013-03-09 23:35:00,38.0,31.0,30.34,ENE,67,7.0,19.0,75,0.00,,,0.00,Rainwise IP-100,2013-03-10 04:35:00,
2013-03-09 23:40:00,38.0,31.0,30.32,NNE,22,9.0,19.0,75,0.00,,,0.00,Rainwise IP-100,2013-03-10 04:40:00,
2013-03-09 23:45:00,38.0,31.0,30.32,East,90,6.0,18.0,75,0.00,,,0.00,Rainwise IP-100,2013-03-10 04:45:00,
2013-03-09 23:50:00,39.0,32.0,30.33,East,90,7.0,15.0,75,0.00,,,0.00,Rainwise IP-100,2013-03-10 04:50:00,
2013-03-09 23:55:00,38.0,31.0,30.33,NNE,22,16.0,16.0,75,0.00,,,0.00,Rainwise IP-100,2013-03-10 04:55:00,